KA9LHE Weather Reports


time (UTC)temp
C
wind
direction
speed
KPH
gust
KPH
rain 1hr
cm
rain 24hr
cm
rain mn
cm
humidity
%
barometer
mb
20260509024606 11 173 1.6 6.4 0.03 0.23 0.23 95 1008.9
20260509023100 11 173 4.8 9.7 0.03 0.23 0.23 95 1008.9
20260509021602 12 173 4.8 11.3 0.03 0.23 0.23 95 1009.0
20260509020058 12 183 4.8 14.5 0.03 0.23 0.23 94 1008.8
20260509014600 12 186 4.8 12.9 0.00 0.20 0.20 94 1008.7
20260509013110 12 158 8.0 14.5 0.00 0.20 0.20 94 1008.7
20260509011605 12 192 8.0 12.9 0.00 0.20 0.20 94 1008.6
20260509004604 12 161 9.7 19.3 0.00 0.20 0.20 93 1008.5
20260509003102 12 162 9.7 20.9 0.00 0.20 0.20 93 1008.5
20260509001600 12 180 8.0 16.1 0.03 0.20 0.20 92 1008.6
20260509000059 12 173 9.7 14.5 0.03 0.20 0.20 92 1008.6
20260508234600 12 178 8.0 16.1 0.03 0.20 0.20 93 1008.7
20260508233103 12 203 8.0 16.1 0.03 0.20 0.20 93 1008.7
20260508231600 12 195 9.7 20.9 0.03 0.18 0.18 93 1008.8
20260508230100 12 168 9.7 17.7 0.03 0.18 0.18 94 1008.9
20260508224613 12 183 8.0 16.1 0.03 0.18 0.18 94 1008.9
20260508223058 12 188 4.8 14.5 0.03 0.18 0.18 93 1009.0
20260508221610 12 174 9.7 16.1 0.00 0.15 0.15 93 1009.0
20260508220100 12 183 11.3 20.9 0.00 0.15 0.15 93 1009.0
20260508214559 12 209 8.0 17.7 0.03 0.15 0.15 93 1009.1
20260508213100 12 186 6.4 16.1 0.03 0.15 0.15 93 1009.1
20260508211600 12 210 6.4 16.1 0.03 0.15 0.15 92 1009.3
20260508210100 12 218 6.4 19.3 0.03 0.15 0.15 91 1009.5
20260508204600 13 232 6.4 16.1 0.00 0.13 0.13 90 1009.7
20260508203107 13 213 4.8 16.1 0.00 0.13 0.13 88 1009.7
20260508201601 14 210 6.4 25.7 0.03 0.13 0.13 84 1009.8
20260508200110 15 157 3.2 9.7 0.03 0.13 0.13 80 1009.8
20260508194557 15 56 1.6 3.2 0.03 0.13 0.13 79 1009.8
20260508193106 15 56 0.0 6.4 0.03 0.13 0.13 76 1009.9
20260508191559 15 0 0.0 4.8 0.00 0.10 0.10 77 1010.0
20260508190101 15 0 0.0 3.2 0.00 0.10 0.10 78 1010.1
20260508184558 13 0 0.0 3.2 0.00 0.10 0.10 77 1010.4
20260508183139 13 125 1.6 9.7 0.00 0.10 0.10 79 1010.6
20260508181613 13 0 1.6 8.0 0.00 0.10 0.10 83 1010.8
20260508180106 13 223 0.0 8.0 0.00 0.10 0.10 84 1011.0
20260508174559 12 0 0.0 11.3 0.00 0.10 0.10 87 1011.2
20260508173113 12 0 0.0 4.8 0.00 0.10 0.10 89 1011.5
20260508171600 12 0 0.0 9.7 0.00 0.10 0.10 89 1011.7
20260508170100 12 0 0.0 6.4 0.00 0.10 0.10 89 1011.9
20260508164609 11 246 4.8 11.3 0.03 0.10 0.10 88 1012.4
20260508163110 12 201 8.0 16.1 0.03 0.10 0.10 88 1012.3
20260508161600 11 198 6.4 14.5 0.03 0.10 0.10 91 1012.2
20260508154601 10 212 11.3 19.3 0.00 0.08 0.08 92 1012.5
20260508153058 10 182 9.7 19.3 0.00 0.08 0.08 92 1012.7
20260508151601 10 244 1.6 11.3 0.00 0.08 0.08 91 1012.6
20260508150124 10 225 4.8 14.5 0.00 0.08 0.08 90 1012.9
20260508144605 10 0 3.2 16.1 0.00 0.08 0.08 89 1013.0
20260508143106 10 231 8.0 20.9 0.00 0.08 0.08 88 1013.2
20260508141606 11 244 6.4 16.1 0.00 0.08 0.08 86 1013.1
20260508140105 11 200 9.7 19.3 0.00 0.08 0.08 85 1012.8
20260508134559 11 221 8.0 24.1 0.00 0.08 0.08 85 1012.9
20260508133059 10 222 3.2 12.9 0.00 0.08 0.08 84 1012.7
20260508131601 10 0 6.4 17.7 0.00 0.08 0.08 84 1012.8
20260508130059 10 204 1.6 14.5 0.00 0.08 0.08 84 1012.9
20260508124602 10 200 3.2 9.7 0.00 0.08 0.08 84 1012.8
20260508123100 10 192 4.8 12.9 0.00 0.08 0.08 85 1012.6
20260508121600 10 192 4.8 12.9 0.00 0.08 0.08 85 1012.7
20260508114603 9 213 0.0 6.4 0.00 0.08 0.08 86 1012.5
20260508113127 8 0 0.0 4.8 0.00 0.08 0.08 87 1012.3
20260508111558 8 0 0.0 6.4 0.00 0.08 0.08 86 1012.3
20260508110058 8 213 1.6 12.9 0.00 0.08 0.08 86 1012.2
20260508104602 8 204 3.2 9.7 0.00 0.08 0.08 86 1012.1
20260508103106 8 0 4.8 12.9 0.00 0.08 0.08 85 1011.9
20260508101558 8 184 3.2 8.0 0.00 0.08 0.08 85 1011.9
20260508100057 8 0 3.2 8.0 0.00 0.08 0.08 85 1012.2
20260508094601 8 184 4.8 8.0 0.00 0.08 0.08 85 1012.2
20260508093059 8 0 1.6 8.0 0.03 0.08 0.08 85 1012.3
20260508091558 8 202 0.0 8.0 0.03 0.08 0.08 86 1012.3
20260508084601 7 0 4.8 16.1 0.03 0.08 0.08 88 1012.3
20260508083058 7 196 6.4 12.9 0.00 0.05 0.05 90 1012.4
20260508081610 7 205 3.2 12.9 0.00 0.05 0.05 92 1012.3
20260508080059 6 0 3.2 9.7 0.00 0.05 0.05 94 1012.3
20260508074604 6 171 3.2 8.0 0.00 0.05 0.05 94 1012.2
20260508073108 6 165 4.8 8.0 0.03 0.05 0.05 94 1012.2
20260508071602 6 220 1.6 4.8 0.03 0.05 0.05 94 1012.3
20260508070104 6 220 0.0 4.8 0.03 0.05 0.05 94 1012.4
20260508064608 6 220 0.0 3.2 0.03 0.05 0.05 94 1012.5
20260508063100 6 220 0.0 3.2 0.00 0.03 0.03 94 1012.7
20260508061604 6 0 0.0 1.6 0.00 0.03 0.03 93 1012.8
20260508060108 6 0 0.0 0.0 0.00 0.03 0.03 92 1012.9
20260508054626 6 0 0.0 0.0 0.00 0.03 0.03 92 1013.0
20260508053115 6 0 0.0 1.6 0.00 0.03 0.03 91 1013.0
20260508051602 7 0 0.0 0.0 0.03 0.03 0.03 91 1013.1
20260508050058 7 0 0.0 3.2 0.03 0.03 0.03 91 1013.1
20260508044559 7 0 0.0 3.2 0.03 0.03 0.03 90 1013.1
20260508043100 8 220 0.0 3.2 0.03 0.03 0.03 89 1013.1
20260508041559 8 0 0.0 0.0 0.00 0.00 0.00 89 1013.2
20260508040104 8 0 0.0 3.2 0.00 0.00 0.00 88 1013.1
20260508034557 8 0 0.0 3.2 0.00 0.00 0.00 88 1013.3
20260508033058 8 220 0.0 4.8 0.00 0.00 0.00 87 1013.4
20260508031605 8 0 0.0 6.4 0.00 0.00 0.00 86 1013.6
20260508030105 9 250 3.2 11.3 0.00 0.00 0.00 84 1013.7